sat.trackr.live / text

‹ back to catalog

LEMUR-2-JK0903EM1407

NORAD 58336 · 2023-174CJ

PAYLOAD ACTIVE UNKNOWN

§ Identity

Operator
Country
US
Launch date
2023-11-11
Launch site
AFWTR
Launch vehicle
Mass (kg)
RCS (m²)

Purposes: earth_obs

External: N2YO · Heavens-Above · Gunter

§ Orbital elements

Epoch: 2026-05-24T23:35:20.114880Z

Period
92.88 min
Inclination
97.3902°
Eccentricity
0.0005601
Mean motion
15.50344574 rev/d
Perigee alt
411.9 km
Apogee alt
419.5 km
Semi-major
6,793.9 km
B*
4.3737e-4
RAAN
234.8276°
Arg perigee
184.2183°
Mean anomaly
175.9022°
Rev number
14,213

§ Raw data

LEMUR-2-JK0903EM14071 58336U 23174CJ  26144.98287170  .00024770  00000+0  43737-3 0  99972 58336  97.3902 234.8276 0005601 184.2183 175.9022 15.50344574142133

JSON: /api/v1/satellites/58336 · /tle

For live sub-satellite position, see the globe view (requires WebGL).

§ Visibility from observer

Set your observer location to see the next 7 days of passes ≥ 10°. The values pass through the URL so the page stays shareable.

No JS? Fill the form by hand. The geolocation button needs JavaScript.

§ Radio — SatNOGS DB

ModeDescriptionDownlinkUplink
GMSK Mode U - GMSK 402.790 MHz

1 transmitter · refreshed weekly from db.satnogs.org